Location: Unspecified
(49.9820°N, 20.4363°E)
Time: 03:50:17
(UTC+02:00)

Vanguard 3 - Pass Details

Date: 20 May 2026
Orbit: 507 x 3204 km, 33.3° (Epoch: 6 June)

Event Time Altitude Azimuth Distance (km) Brightness Sun altitude
Rises 11:58:08 0° 214° (SW) 5,845 11.8 59.2°
Reaches altitude 10° 12:02:12 10° 205° (SSW) 5,180 11.8 59.4°
Maximum altitude 12:15:38 33° 150° (SSE) 4,337 12.1 59.8°
Drops below altitude 10° 12:31:20 10° 97° (E) 6,078 11.8 60.0°
Sets 12:36:35 0° 89° (E) 6,961 11.9 60.0°
